GW3882 Weather Reports


time (UTC)temp
C
wind
direction
speed
KPH
gust
KPH
rain 1hr
cm
rain 24hr
cm
rain mn
cm
humidity
%
barometer
mb
20260503013027 18 61 0.0 0.0 0.00 0.00 0.00 36 1014.5
20260503011525 18 294 0.0 0.0 0.00 0.00 0.00 37 1014.7
20260503010025 18 242 0.0 0.0 0.00 0.00 0.00 37 1014.8
20260503004523 17 290 0.0 0.0 0.00 0.00 0.00 39 1014.9
20260503003023 17 213 0.0 0.0 0.00 0.00 0.00 38 1015.1
20260503001523 17 236 0.0 0.0 0.00 0.00 0.00 38 1015.2
20260503000022 18 298 0.0 0.0 0.00 0.00 0.00 35 1015.2
20260502234522 18 259 0.0 0.0 0.00 0.00 0.00 35 1015.3
20260502233022 18 288 0.0 0.0 0.00 0.00 0.00 34 1015.5
20260502231524 18 27 0.0 0.0 0.00 0.00 0.00 35 1015.8
20260502230019 18 282 0.0 0.0 0.00 0.00 0.00 36 1015.9
20260502224530 18 304 0.0 0.0 0.00 0.00 0.00 37 1016.1
20260502223016 18 299 0.0 0.0 0.00 0.00 0.00 38 1016.3
20260502221515 17 286 0.0 0.0 0.00 0.00 0.00 39 1016.4
20260502220017 18 326 0.0 0.0 0.00 0.00 0.00 36 1016.5
20260502214512 18 242 0.0 0.0 0.00 0.00 0.00 38 1016.7
20260502213013 17 263 0.0 0.0 0.00 0.00 0.00 39 1016.8
20260502211514 18 34 0.0 0.0 0.00 0.00 0.00 38 1016.9
20260502210011 18 327 0.0 0.0 0.00 0.00 0.00 39 1017.1
20260502204508 17 5 0.0 0.0 0.00 0.00 0.00 41 1017.2
20260502203007 16 360 0.0 0.0 0.00 0.00 0.00 42 1017.3
20260502201510 16 319 0.0 0.0 0.00 0.00 0.00 43 1017.5
20260502200138 16 62 0.0 0.0 0.00 0.00 0.00 44 1017.7
20260502194505 16 355 0.0 0.0 0.00 0.00 0.00 45 1017.9
20260502193004 16 342 0.0 0.0 0.00 0.00 0.00 44 1018.1
20260502191504 16 11 0.0 0.0 0.00 0.00 0.00 42 1018.2
20260502190004 16 321 0.0 0.0 0.00 0.00 0.00 42 1018.3
20260502184503 17 355 0.0 0.0 0.00 0.00 0.00 41 1018.2
20260502183003 17 360 0.0 0.0 0.00 0.00 0.00 42 1018.3
20260502181504 17 13 0.0 0.0 0.00 0.00 0.00 44 1018.3
20260502163053 15 355 0.0 0.0 0.00 0.00 0.00 45 1018.4
20260502161551 15 348 0.0 0.0 0.00 0.00 0.00 44 1018.4
20260502151541 13 59 0.0 0.0 0.00 0.00 0.00 48 1018.2
20260502123019 6 52 0.0 0.0 0.00 0.00 0.00 65 1017.2
20260502121520 6 355 0.0 0.0 0.00 0.00 0.00 64 1017.1
20260502114513 6 40 0.0 0.0 0.00 0.00 0.00 61 1016.9
20260502113011 6 5 0.0 0.0 0.00 0.00 0.00 58 1016.7
20260502111516 6 5 0.0 0.0 0.00 0.00 0.00 57 1016.4
20260502110006 7 5 0.0 0.0 0.00 0.00 0.00 56 1016.1
20260502104510 7 44 0.0 0.0 0.00 0.00 0.00 55 1015.8
20260502103004 7 346 0.0 0.0 0.00 0.00 0.00 54 1015.7
20260502101609 7 45 0.0 0.0 0.00 0.00 0.00 53 1015.5
20260502070038 8 360 0.0 0.0 0.00 0.00 0.00 42 1014.5
20260502064538 8 5 0.0 0.0 0.00 0.00 0.00 42 1014.5
20260502063039 10 355 0.0 0.0 0.00 0.00 0.00 40 1014.5
20260502061529 10 321 0.0 0.0 0.00 0.00 0.00 40 1014.5
20260502060027 12 286 0.0 0.0 0.00 0.00 0.00 36 1014.4
20260502054534 11 311 0.0 0.0 0.00 0.00 0.00 36 1014.3
20260502053025 12 334 0.0 0.0 0.00 0.00 0.00 35 1014.3
20260502051526 11 317 0.0 0.0 0.00 0.00 0.00 35 1014.3
20260502050025 11 325 0.0 0.0 0.00 0.00 0.00 33 1014.2
20260502044525 12 328 0.0 0.0 0.00 0.00 0.00 31 1014.2
20260502043028 12 304 0.0 0.0 0.00 0.00 0.00 32 1014.2
20260502041524 10 313 0.0 0.0 0.00 0.00 0.00 36 1014.2
20260502040022 10 333 0.0 0.0 0.00 0.00 0.00 33 1014.1
20260502034522 12 294 0.0 0.0 0.00 0.00 0.00 29 1014.1
20260502033024 11 302 0.0 0.0 0.00 0.00 0.00 30 1014.1
20260502031521 11 276 0.0 0.0 0.00 0.00 0.00 29 1013.8
20260502030020 13 295 0.0 0.0 0.00 0.00 0.00 27 1013.7
20260502024519 13 296 0.0 0.0 0.00 0.00 0.00 26 1013.4
20260502023019 14 295 0.0 0.0 0.00 0.00 0.00 27 1013.4
20260502021518 16 271 0.0 0.0 0.00 0.00 0.00 25 1013.3
20260502020118 16 296 0.0 0.0 0.00 0.00 0.00 26 1013.3
20260502014516 18 252 0.0 0.0 0.00 0.00 0.00 24 1013.2